Flag for US Virgin Islands Weather past 2 weeks in Charlotte Amalie, US Virgin Islands

84 °F

Passing clouds.

Feels Like: 94 °F
Forecast: 83 / 90 °F
Wind: 10 mph from Southeast

Location: Cyril E. King International Airport

Current Time: Oct 5, 2015 at 4:44:01 AM

Latest Report: Oct 5, 2015 at 3:53 AM

Visibility: 10 mi

Pressure: 29.92 "Hg

Humidity: 80%

Dew point: 77 °F

Location of Charlotte AmalieLocation

Historic Weather in Charlotte Amalie — Graph


Charlotte Amalie temperature yesterday

Maximum temperature yesterday: 88 °F (at 11:53 AM)
Minimum temperature yesterday: 84 °F (at 12:53 AM)
Average temperature yesterday: 85 °F

Past Weeks' High & Low Weather Summary

High89 °F (Sep 25, 12:53 PM)100% (Oct 3, 11:17 AM)29.98 "Hg (Oct 3, 11:17 AM)
Low75 °F (Oct 3, 9:53 AM)57% (Sep 29, 3:53 PM)29.74 "Hg (Oct 1, 3:53 PM)
Average84 °F75%29.88 "Hg
* Reported Sep 20 2:53 AM — Oct 5 2:53 AM, Charlotte Amalie, Weather by CustomWeather, © 2015

Note: Actual official high and low records may vary slightly from our data, if they occured in-between our weather recording intervals... More about our weather records


Charlotte Amalie weather history for previous 24 hours

Time TempWeatherWind HumidityBarometerVisibility
2:53 AM
Mon, Oct 5
84 °FClear.8 mph83%29.91 "Hg10 mi
1:53 AM84 °FPassing clouds.10 mph83%29.92 "Hg10 mi
12:53 AM84 °FClear.8 mph83%29.94 "Hg10 mi
11:53 PM
Sun, Oct 4
84 °FClear.10 mph80%29.95 "Hg10 mi
10:53 PM84 °FClear.10 mph83%29.96 "Hg10 mi
9:53 PM85 °FClear.8 mph80%29.95 "Hg10 mi
8:53 PM85 °FPassing clouds.10 mph80%29.94 "Hg10 mi
7:53 PM85 °FClear.8 mph80%29.93 "Hg10 mi
6:53 PM85 °FClear.9 mph77%29.90 "Hg10 mi
5:53 PM85 °FSunny.9 mph77%29.90 "Hg10 mi
4:53 PM86 °FSunny.10 mph77%29.88 "Hg10 mi
3:53 PM87 °FSunny.10 mph75%29.88 "Hg10 mi
2:53 PM86 °FSunny.10 mph77%29.88 "Hg10 mi
1:53 PM87 °FSunny.12 mph75%29.88 "Hg10 mi
12:53 PM87 °FScattered clouds.13 mph72%29.90 "Hg10 mi
12:38 PM87 °FScattered clouds.10 mph72%29.91 "Hg10 mi
12:24 PM86 °FPartly sunny.12 mph75%29.91 "Hg10 mi
11:53 AM88 °FPassing clouds.9 mph73%29.92 "Hg10 mi
10:53 AM87 °FSunny.12 mph72%29.93 "Hg10 mi
9:53 AM86 °FSunny.13 mph75%29.93 "Hg10 mi
8:53 AM85 °FPassing clouds.14 mph77%29.92 "Hg10 mi
7:53 AM85 °FPassing clouds.14 mph77%29.91 "Hg10 mi
6:53 AM84 °FSunny.13 mph80%29.89 "Hg10 mi
5:53 AM84 °FClear.16 mph77%29.88 "Hg10 mi
4:53 AM84 °FPassing clouds.16 mph83%29.86 "Hg10 mi
Weather by CustomWeather, © 2015

See weather overviewHow to use our weather pages